Saint Bonnet de Bellac- Haute Vienne - France
Donnes mto: lundi, 27/02/2012
Date Horaire Temp. E. Hum. E. P.atmo. Pluie Vent Direction Direction Ensoleilleme Solaire P. de rose Temp au vent Rafales
27/02/2012 00:00 1,8 C 82 % 1026,7 hPa 0,0 mm 0,0 km/h (0 Bft) E-NE 67 0 min 0 W/m -0,9 C 1,8 C 0,0 km/h (0 Bft)
27/02/2012 00:10 1,4 C 82 % 1026,7 hPa 0,0 mm 0,0 km/h (0 Bft) E-NE 67 0 min 0 W/m -1,3 C 1,4 C 0,0 km/h (0 Bft)
27/02/2012 00:20 1,1 C 82 % 1026,7 hPa 0,0 mm 0,0 km/h (0 Bft) E-NE 67 0 min 0 W/m -1,6 C 1,1 C 0,0 km/h (0 Bft)
27/02/2012 00:30 0,9 C 83 % 1026,7 hPa 0,0 mm 0,0 km/h (0 Bft) E-NE 67 0 min 0 W/m -1,7 C 0,9 C 0,0 km/h (0 Bft)
27/02/2012 00:40 0,6 C 83 % 1026,7 hPa 0,0 mm 0,0 km/h (0 Bft) E-NE 67 0 min 0 W/m -1,9 C 0,6 C 0,0 km/h (0 Bft)
27/02/2012 00:50 0,4 C 84 % 1026,6 hPa 0,0 mm 0,0 km/h (0 Bft) E-NE 67 0 min 0 W/m -2,0 C 0,4 C 0,0 km/h (0 Bft)
27/02/2012 01:00 0,3 C 84 % 1026,6 hPa 0,0 mm 0,0 km/h (0 Bft) E-NE 67 0 min 0 W/m -2,1 C 0,3 C 0,0 km/h (0 Bft)
27/02/2012 01:10 0,2 C 85 % 1026,5 hPa 0,0 mm 0,0 km/h (0 Bft) E 90 0 min 0 W/m -2,0 C 0,2 C 3,2 km/h (1 Bft)
27/02/2012 01:20 0,5 C 86 % 1026,5 hPa 0,0 mm 0,0 km/h (0 Bft) E 90 0 min 0 W/m -1,6 C 0,5 C 0,0 km/h (0 Bft)
27/02/2012 01:30 0,9 C 86 % 1026,4 hPa 0,0 mm 0,0 km/h (0 Bft) N 360 0 min 0 W/m -1,2 C 0,9 C 0,0 km/h (0 Bft)
27/02/2012 01:40 1,2 C 86 % 1026,3 hPa 0,0 mm 0,7 km/h (0 Bft) E-NE 67 0 min 0 W/m -0,9 C 1,2 C 4,0 km/h (1 Bft)
27/02/2012 01:50 1,3 C 86 % 1026,2 hPa 0,0 mm 0,0 km/h (0 Bft) E 90 0 min 0 W/m -0,8 C 1,3 C 0,0 km/h (0 Bft)
27/02/2012 02:02 1,3 C 87 % 1026,3 hPa 0,0 mm 0,7 km/h (0 Bft) E 90 0 min 0 W/m -0,6 C 1,3 C 3,6 km/h (1 Bft)
27/02/2012 02:10 1,2 C 87 % 1026,4 hPa 0,0 mm 0,0 km/h (0 Bft) E-SE 112 0 min 0 W/m -0,7 C 1,2 C 0,0 km/h (0 Bft)
27/02/2012 02:20 0,9 C 86 % 1026,5 hPa 0,0 mm 0,0 km/h (0 Bft) E 90 0 min 0 W/m -1,2 C 0,9 C 0,0 km/h (0 Bft)
27/02/2012 02:30 0,7 C 86 % 1026,5 hPa 0,0 mm 0,0 km/h (0 Bft) E 90 0 min 0 W/m -1,4 C 0,7 C 0,0 km/h (0 Bft)
27/02/2012 02:40 0,3 C 86 % 1026,4 hPa 0,0 mm 0,0 km/h (0 Bft) E 90 0 min 0 W/m -1,8 C 0,3 C 0,0 km/h (0 Bft)
27/02/2012 02:50 0,0 C 87 % 1026,4 hPa 0,0 mm 0,0 km/h (0 Bft) E 90 0 min 0 W/m -1,9 C 0,0 C 0,0 km/h (0 Bft)
27/02/2012 03:00 -0,2 C 87 % 1026,4 hPa 0,0 mm 0,0 km/h (0 Bft) E 90 0 min 0 W/m -2,1 C -0,2 C 0,0 km/h (0 Bft)
27/02/2012 03:10 -0,3 C 87 % 1026,4 hPa 0,0 mm 0,0 km/h (0 Bft) E 90 0 min 0 W/m -2,2 C -0,3 C 0,0 km/h (0 Bft)
27/02/2012 03:20 -0,4 C 87 % 1026,5 hPa 0,0 mm 0,0 km/h (0 Bft) NE 45 0 min 0 W/m -2,3 C -0,4 C 0,0 km/h (0 Bft)
27/02/2012 03:30 -0,6 C 87 % 1026,5 hPa 0,0 mm 0,0 km/h (0 Bft) N-NO 337 0 min 0 W/m -2,5 C -0,6 C 0,0 km/h (0 Bft)
27/02/2012 03:40 -0,7 C 87 % 1026,5 hPa 0,0 mm 0,0 km/h (0 Bft) N 360 0 min 0 W/m -2,6 C -0,7 C 0,0 km/h (0 Bft)
27/02/2012 03:50 -0,7 C 87 % 1026,5 hPa 0,0 mm 0,0 km/h (0 Bft) N 360 0 min 0 W/m -2,6 C -0,7 C 0,0 km/h (0 Bft)
27/02/2012 04:00 -0,6 C 87 % 1026,5 hPa 0,0 mm 0,0 km/h (0 Bft) N 360 0 min 0 W/m -2,5 C -0,6 C 0,0 km/h (0 Bft)
27/02/2012 04:10 -0,6 C 88 % 1026,5 hPa 0,0 mm 0,0 km/h (0 Bft) N-NE 22 0 min 0 W/m -2,3 C -0,6 C 0,0 km/h (0 Bft)
27/02/2012 04:20 -0,5 C 88 % 1026,4 hPa 0,0 mm 0,0 km/h (0 Bft) N 360 0 min 0 W/m -2,2 C -0,5 C 0,0 km/h (0 Bft)
27/02/2012 04:30 -0,4 C 88 % 1026,4 hPa 0,0 mm 0,0 km/h (0 Bft) N-NE 22 0 min 0 W/m -2,1 C -0,4 C 0,0 km/h (0 Bft)
27/02/2012 04:40 -0,5 C 88 % 1026,4 hPa 0,0 mm 0,0 km/h (0 Bft) N 360 0 min 0 W/m -2,2 C -0,5 C 0,0 km/h (0 Bft)
27/02/2012 04:50 -0,7 C 88 % 1026,2 hPa 0,0 mm 0,0 km/h (0 Bft) N-NE 22 0 min 0 W/m -2,4 C -0,7 C 0,0 km/h (0 Bft)
27/02/2012 05:00 -0,9 C 88 % 1026,1 hPa 0,0 mm 0,0 km/h (0 Bft) N 360 0 min 0 W/m -2,6 C -0,9 C 0,0 km/h (0 Bft)
27/02/2012 05:10 -1,2 C 88 % 1026,1 hPa 0,0 mm 0,0 km/h (0 Bft) N 360 0 min 0 W/m -2,9 C -1,2 C 0,0 km/h (0 Bft)
27/02/2012 05:20 -1,4 C 88 % 1026,2 hPa 0,0 mm 0,0 km/h (0 Bft) N 360 0 min 0 W/m -3,1 C -1,4 C 0,0 km/h (0 Bft)
27/02/2012 05:30 -1,5 C 89 % 1026,3 hPa 0,0 mm 0,0 km/h (0 Bft) N 360 0 min 0 W/m -3,1 C -1,5 C 0,0 km/h (0 Bft)
27/02/2012 05:40 -1,6 C 89 % 1026,2 hPa 0,0 mm 0,0 km/h (0 Bft) N-NE 22 0 min 0 W/m -3,2 C -1,6 C 0,0 km/h (0 Bft)
27/02/2012 05:50 -1,7 C 89 % 1026,1 hPa 0,0 mm 0,0 km/h (0 Bft) E-NE 67 0 min 0 W/m -3,3 C -1,7 C 0,0 km/h (0 Bft)
27/02/2012 06:00 -1,7 C 88 % 1026,3 hPa 0,0 mm 0,0 km/h (0 Bft) E-NE 67 0 min 0 W/m -3,4 C -1,7 C 0,0 km/h (0 Bft)
27/02/2012 06:10 -1,9 C 88 % 1026,3 hPa 0,0 mm 0,0 km/h (0 Bft) E-NE 67 0 min 0 W/m -3,6 C -1,9 C 0,0 km/h (0 Bft)
27/02/2012 06:20 -1,9 C 89 % 1026,1 hPa 0,0 mm 0,0 km/h (0 Bft) E-NE 67 0 min 0 W/m -3,5 C -1,9 C 0,0 km/h (0 Bft)
27/02/2012 06:30 -2,1 C 89 % 1026,1 hPa 0,0 mm 0,0 km/h (0 Bft) E-NE 67 0 min 0 W/m -3,7 C -2,1 C 0,0 km/h (0 Bft)
27/02/2012 06:40 -2,2 C 89 % 1026,0 hPa 0,0 mm 0,0 km/h (0 Bft) E-NE 67 0 min 0 W/m -3,8 C -2,2 C 0,0 km/h (0 Bft)
27/02/2012 06:50 -2,2 C 90 % 1026,1 hPa 0,0 mm 0,0 km/h (0 Bft) E-NE 67 0 min 0 W/m -3,6 C -2,2 C 0,0 km/h (0 Bft)
27/02/2012 07:00 -2,3 C 90 % 1026,0 hPa 0,0 mm 0,0 km/h (0 Bft) E-NE 67 0 min 0 W/m -3,7 C -2,3 C 0,0 km/h (0 Bft)
27/02/2012 07:10 -2,3 C 90 % 1025,9 hPa 0,0 mm 0,0 km/h (0 Bft) E 90 0 min 0 W/m -3,7 C -2,3 C 0,0 km/h (0 Bft)
27/02/2012 07:20 -2,3 C 90 % 1025,9 hPa 0,0 mm 0,0 km/h (0 Bft) E 90 0 min 0 W/m -3,7 C -2,3 C 0,0 km/h (0 Bft)
27/02/2012 07:30 -2,2 C 90 % 1025,8 hPa 0,0 mm 0,0 km/h (0 Bft) E-SE 112 0 min 0 W/m -3,6 C -2,2 C 0,0 km/h (0 Bft)
27/02/2012 07:40 -1,9 C 90 % 1026,2 hPa 0,0 mm 0,0 km/h (0 Bft) E 90 0 min 0 W/m -3,3 C -1,9 C 0,0 km/h (0 Bft)
27/02/2012 07:50 -1,8 C 90 % 1026,1 hPa 0,0 mm 0,0 km/h (0 Bft) E-SE 112 2 min 0 W/m -3,2 C -1,8 C 0,0 km/h (0 Bft)
27/02/2012 08:00 -1,6 C 90 % 1026,3 hPa 0,0 mm 0,0 km/h (0 Bft) E-SE 112 2 min 0 W/m -3,0 C -1,6 C 0,0 km/h (0 Bft)
27/02/2012 08:10 -1,5 C 90 % 1026,5 hPa 0,0 mm 0,4 km/h (0 Bft) E-SE 112 2 min 0 W/m -2,9 C -1,5 C 3,2 km/h (1 Bft)
27/02/2012 08:20 -1,4 C 90 % 1026,8 hPa 0,0 mm 0,0 km/h (0 Bft) E 90 2 min 0 W/m -2,8 C -1,4 C 0,0 km/h (0 Bft)
27/02/2012 08:30 -1,4 C 90 % 1027,0 hPa 0,0 mm 0,0 km/h (0 Bft) E-SE 112 2 min 0 W/m -2,8 C -1,4 C 0,0 km/h (0 Bft)
27/02/2012 08:40 -1,2 C 91 % 1027,3 hPa 0,0 mm 0,0 km/h (0 Bft) E-SE 112 2 min 0 W/m -2,5 C -1,2 C 0,0 km/h (0 Bft)
27/02/2012 08:50 -1,2 C 91 % 1027,2 hPa 0,0 mm 0,0 km/h (0 Bft) E-SE 112 2 min 0 W/m -2,5 C -1,2 C 0,0 km/h (0 Bft)
27/02/2012 09:00 -1,1 C 91 % 1027,0 hPa 0,0 mm 0,0 km/h (0 Bft) E-SE 112 2 min 0 W/m -2,4 C -1,1 C 0,0 km/h (0 Bft)
27/02/2012 09:10 -0,8 C 91 % 1026,9 hPa 0,0 mm 0,0 km/h (0 Bft) E 90 2 min 0 W/m -2,1 C -0,8 C 0,0 km/h (0 Bft)
27/02/2012 09:20 -0,5 C 91 % 1027,1 hPa 0,0 mm 0,0 km/h (0 Bft) E 90 2 min 0 W/m -1,8 C -0,5 C 0,0 km/h (0 Bft)
27/02/2012 09:30 -0,2 C 91 % 1027,0 hPa 0,0 mm 1,4 km/h (1 Bft) SE 135 2 min 0 W/m -1,5 C -0,2 C 4,0 km/h (1 Bft)
27/02/2012 09:40 0,0 C 91 % 1027,1 hPa 0,0 mm 0,0 km/h (0 Bft) E-NE 67 2 min 0 W/m -1,3 C 0,0 C 0,0 km/h (0 Bft)
27/02/2012 09:50 0,2 C 91 % 1027,1 hPa 0,0 mm 0,0 km/h (0 Bft) E 90 2 min 0 W/m -1,1 C 0,2 C 0,0 km/h (0 Bft)
27/02/2012 10:00 0,5 C 91 % 1027,1 hPa 0,0 mm 0,4 km/h (0 Bft) E 90 2 min 0 W/m -0,8 C 0,5 C 4,0 km/h (1 Bft)
27/02/2012 10:10 0,8 C 91 % 1027,3 hPa 0,0 mm 0,0 km/h (0 Bft) E 90 2 min 0 W/m -0,5 C 0,8 C 0,0 km/h (0 Bft)
27/02/2012 10:20 0,9 C 91 % 1027,3 hPa 0,0 mm 0,0 km/h (0 Bft) E 90 2 min 0 W/m -0,4 C 0,9 C 0,0 km/h (0 Bft)
27/02/2012 10:30 1,3 C 91 % 1027,1 hPa 0,0 mm 0,0 km/h (0 Bft) E 90 2 min 0 W/m -0,0 C 1,3 C 0,0 km/h (0 Bft)
27/02/2012 10:40 1,8 C 92 % 1027,1 hPa 0,0 mm 0,0 km/h (0 Bft) E 90 2 min 0 W/m 0,6 C 1,8 C 0,0 km/h (0 Bft)
27/02/2012 10:50 2,6 C 92 % 1027,1 hPa 0,0 mm 0,0 km/h (0 Bft) E-NE 67 2 min 0 W/m 1,4 C 2,6 C 0,0 km/h (0 Bft)
27/02/2012 11:00 3,1 C 91 % 1027,2 hPa 0,0 mm 0,0 km/h (0 Bft) E-SE 112 2 min 0 W/m 1,8 C 3,1 C 0,0 km/h (0 Bft)
27/02/2012 11:10 4,0 C 90 % 1027,1 hPa 0,0 mm 0,0 km/h (0 Bft) E-SE 112 2 min 0 W/m 2,5 C 4,0 C 0,0 km/h (0 Bft)
27/02/2012 11:20 4,3 C 89 % 1027,0 hPa 0,0 mm 0,0 km/h (0 Bft) E-SE 112 2 min 0 W/m 2,7 C 4,3 C 0,0 km/h (0 Bft)
27/02/2012 11:30 5,1 C 87 % 1026,9 hPa 0,0 mm 0,0 km/h (0 Bft) E-SE 112 2 min 0 W/m 3,1 C 5,1 C 0,0 km/h (0 Bft)
27/02/2012 11:40 5,6 C 86 % 1027,0 hPa 0,0 mm 1,4 km/h (1 Bft) E-NE 67 2 min 0 W/m 3,4 C 5,6 C 4,3 km/h (1 Bft)
27/02/2012 11:50 6,8 C 83 % 1027,1 hPa 0,0 mm 2,5 km/h (1 Bft) E-NE 67 2 min 0 W/m 4,1 C 6,8 C 4,3 km/h (1 Bft)
27/02/2012 12:00 7,7 C 81 % 1027,1 hPa 0,0 mm 3,2 km/h (1 Bft) NE 45 2 min 0 W/m 4,7 C 7,7 C 4,3 km/h (1 Bft)
27/02/2012 12:10 8,9 C 79 % 1027,0 hPa 0,0 mm 5,4 km/h (2 Bft) E-NE 67 2 min 0 W/m 5,5 C 8,4 C 9,7 km/h (2 Bft)
27/02/2012 12:20 9,7 C 74 % 1027,1 hPa 0,0 mm 4,3 km/h (1 Bft) NE 45 2 min 0 W/m 5,3 C 9,7 C 7,2 km/h (2 Bft)
27/02/2012 12:30 10,2 C 72 % 1026,9 hPa 0,0 mm 4,7 km/h (1 Bft) N 360 2 min 0 W/m 5,4 C 10,2 C 11,9 km/h (2 Bft)
27/02/2012 12:40 9,9 C 70 % 1026,8 hPa 0,0 mm 4,7 km/h (1 Bft) N-NE 22 2 min 0 W/m 4,7 C 9,7 C 6,8 km/h (2 Bft)
27/02/2012 12:50 10,0 C 70 % 1026,7 hPa 0,0 mm 3,6 km/h (1 Bft) E 90 2 min 0 W/m 4,8 C 10,0 C 7,9 km/h (2 Bft)
27/02/2012 13:00 10,6 C 69 % 1027,1 hPa 0,0 mm 1,8 km/h (1 Bft) E-SE 112 2 min 0 W/m 5,2 C 10,6 C 4,0 km/h (1 Bft)
27/02/2012 13:10 11,1 C 67 % 1026,8 hPa 0,0 mm 6,8 km/h (2 Bft) N 360 2 min 0 W/m 5,2 C 11,1 C 8,3 km/h (2 Bft)
27/02/2012 13:20 11,3 C 64 % 1026,7 hPa 0,0 mm 11,2 km/h (2 Bft) N-NE 22 2 min 0 W/m 4,7 C 11,3 C 19,8 km/h (3 Bft)
27/02/2012 13:30 11,2 C 64 % 1026,5 hPa 0,0 mm 9,7 km/h (2 Bft) N-NO 337 2 min 0 W/m 4,6 C 11,2 C 13,3 km/h (3 Bft)
27/02/2012 13:40 11,3 C 62 % 1026,4 hPa 0,0 mm 5,0 km/h (1 Bft) N-NE 22 2 min 0 W/m 4,3 C 11,3 C 6,5 km/h (2 Bft)
27/02/2012 13:50 11,3 C 62 % 1026,5 hPa 0,0 mm 7,2 km/h (2 Bft) NE 45 2 min 0 W/m 4,3 C 11,3 C 9,7 km/h (2 Bft)
27/02/2012 14:00 11,4 C 61 % 1026,5 hPa 0,0 mm 10,4 km/h (2 Bft) NE 45 2 min 0 W/m 4,2 C 11,4 C 10,4 km/h (2 Bft)
27/02/2012 14:10 11,3 C 61 % 1026,4 hPa 0,0 mm 8,6 km/h (2 Bft) E-NE 67 2 min 0 W/m 4,1 C 11,3 C 10,4 km/h (2 Bft)
27/02/2012 14:20 11,4 C 61 % 1026,1 hPa 0,0 mm 3,6 km/h (1 Bft) NE 45 2 min 0 W/m 4,2 C 11,4 C 4,3 km/h (1 Bft)
27/02/2012 14:30 11,4 C 61 % 1026,0 hPa 0,0 mm 4,3 km/h (1 Bft) N 360 2 min 0 W/m 4,2 C 11,4 C 8,3 km/h (2 Bft)
27/02/2012 14:40 11,5 C 59 % 1025,8 hPa 0,0 mm 9,0 km/h (2 Bft) NE 45 2 min 0 W/m 3,8 C 11,5 C 11,2 km/h (2 Bft)
27/02/2012 14:50 11,4 C 59 % 1025,6 hPa 0,0 mm 5,4 km/h (2 Bft) E-NE 67 2 min 0 W/m 3,7 C 11,4 C 5,4 km/h (2 Bft)
27/02/2012 15:00 11,2 C 60 % 1025,5 hPa 0,0 mm 5,0 km/h (1 Bft) E 90 2 min 0 W/m 3,7 C 11,2 C 7,9 km/h (2 Bft)
27/02/2012 15:10 11,1 C 61 % 1025,4 hPa 0,0 mm 7,9 km/h (2 Bft) E-NE 67 2 min 0 W/m 3,9 C 11,1 C 12,6 km/h (3 Bft)
27/02/2012 15:20 11,0 C 61 % 1025,3 hPa 0,0 mm 5,0 km/h (1 Bft) NE 45 2 min 0 W/m 3,8 C 11,0 C 10,1 km/h (2 Bft)
27/02/2012 15:30 10,9 C 61 % 1025,2 hPa 0,0 mm 6,1 km/h (2 Bft) E 90 2 min 0 W/m 3,7 C 10,9 C 11,2 km/h (2 Bft)
27/02/2012 15:40 10,9 C 61 % 1025,2 hPa 0,0 mm 4,0 km/h (1 Bft) N-NE 22 2 min 0 W/m 3,7 C 10,9 C 7,6 km/h (2 Bft)
27/02/2012 15:50 10,9 C 61 % 1025,1 hPa 0,0 mm 9,4 km/h (2 Bft) NE 45 2 min 0 W/m 3,7 C 10,9 C 9,4 km/h (2 Bft)
27/02/2012 16:00 10,8 C 61 % 1024,8 hPa 0,0 mm 5,0 km/h (1 Bft) NE 45 2 min 0 W/m 3,6 C 10,8 C 8,6 km/h (2 Bft)
27/02/2012 16:10 10,8 C 62 % 1024,7 hPa 0,0 mm 3,6 km/h (1 Bft) NE 45 2 min 0 W/m 3,8 C 10,8 C 6,1 km/h (2 Bft)
27/02/2012 16:20 10,8 C 62 % 1024,7 hPa 0,0 mm 3,2 km/h (1 Bft) N-NE 22 2 min 0 W/m 3,8 C 10,8 C 4,7 km/h (1 Bft)
27/02/2012 16:30 10,6 C 62 % 1024,8 hPa 0,0 mm 2,5 km/h (1 Bft) E-NE 67 2 min 0 W/m 3,6 C 10,6 C 4,7 km/h (1 Bft)
27/02/2012 16:40 10,6 C 62 % 1024,6 hPa 0,0 mm 6,1 km/h (2 Bft) NE 45 2 min 0 W/m 3,6 C 10,6 C 6,8 km/h (2 Bft)
27/02/2012 16:50 10,5 C 63 % 1024,7 hPa 0,0 mm 3,2 km/h (1 Bft) NE 45 2 min 0 W/m 3,8 C 10,5 C 7,2 km/h (2 Bft)
27/02/2012 17:00 10,4 C 62 % 1024,6 hPa 0,0 mm 4,3 km/h (1 Bft) NE 45 2 min 0 W/m 3,4 C 10,4 C 8,3 km/h (2 Bft)
27/02/2012 17:10 10,3 C 63 % 1024,7 hPa 0,0 mm 1,8 km/h (1 Bft) NE 45 2 min 0 W/m 3,6 C 10,3 C 2,9 km/h (1 Bft)
27/02/2012 17:20 10,1 C 62 % 1024,6 hPa 0,0 mm 3,2 km/h (1 Bft) NE 45 2 min 0 W/m 3,2 C 10,1 C 4,3 km/h (1 Bft)
27/02/2012 17:30 10,0 C 62 % 1024,7 hPa 0,0 mm 3,6 km/h (1 Bft) N-NE 22 2 min 0 W/m 3,1 C 10,0 C 7,6 km/h (2 Bft)
27/02/2012 17:40 9,8 C 63 % 1024,6 hPa 0,0 mm 5,0 km/h (1 Bft) NE 45 2 min 0 W/m 3,1 C 9,5 C 7,2 km/h (2 Bft)
27/02/2012 17:50 9,7 C 63 % 1024,7 hPa 0,0 mm 3,2 km/h (1 Bft) N-NE 22 2 min 0 W/m 3,0 C 9,7 C 3,2 km/h (1 Bft)
27/02/2012 18:00 9,5 C 63 % 1024,6 hPa 0,0 mm 2,2 km/h (1 Bft) NE 45 2 min 0 W/m 2,8 C 9,5 C 4,3 km/h (1 Bft)
27/02/2012 18:10 9,3 C 63 % 1024,7 hPa 0,0 mm 0,0 km/h (0 Bft) NE 45 2 min 0 W/m 2,6 C 9,3 C 3,2 km/h (1 Bft)
27/02/2012 18:20 8,9 C 64 % 1024,8 hPa 0,0 mm 0,0 km/h (0 Bft) N 360 2 min 0 W/m 2,5 C 8,9 C 0,0 km/h (0 Bft)
27/02/2012 18:30 8,6 C 65 % 1024,8 hPa 0,0 mm 2,5 km/h (1 Bft) N-NE 22 0 min 0 W/m 2,4 C 8,6 C 4,0 km/h (1 Bft)
27/02/2012 18:40 8,3 C 66 % 1024,9 hPa 0,0 mm 0,0 km/h (0 Bft) NE 45 0 min 0 W/m 2,3 C 8,3 C 0,0 km/h (0 Bft)
27/02/2012 18:50 7,8 C 66 % 1025,0 hPa 0,0 mm 1,8 km/h (1 Bft) NE 45 0 min 0 W/m 1,9 C 7,8 C 4,3 km/h (1 Bft)
27/02/2012 19:00 7,5 C 67 % 1025,1 hPa 0,0 mm 0,7 km/h (0 Bft) NE 45 0 min 0 W/m 1,8 C 7,5 C 3,2 km/h (1 Bft)
27/02/2012 19:10 7,2 C 68 % 1025,1 hPa 0,0 mm 2,9 km/h (1 Bft) N-NE 22 0 min 0 W/m 1,7 C 7,2 C 3,6 km/h (1 Bft)
27/02/2012 19:20 6,9 C 69 % 1025,2 hPa 0,0 mm 1,8 km/h (1 Bft) N-NE 22 0 min 0 W/m 1,6 C 6,9 C 3,6 km/h (1 Bft)
27/02/2012 19:30 6,6 C 69 % 1025,2 hPa 0,0 mm 0,7 km/h (0 Bft) NE 45 0 min 0 W/m 1,3 C 6,6 C 3,6 km/h (1 Bft)
27/02/2012 19:40 6,3 C 70 % 1025,3 hPa 0,0 mm 0,4 km/h (0 Bft) N-NE 22 0 min 0 W/m 1,2 C 6,3 C 4,0 km/h (1 Bft)
27/02/2012 19:50 6,1 C 71 % 1025,4 hPa 0,0 mm 0,0 km/h (0 Bft) N-NE 22 0 min 0 W/m 1,2 C 6,1 C 0,0 km/h (0 Bft)
27/02/2012 20:00 5,8 C 72 % 1025,4 hPa 0,0 mm 0,0 km/h (0 Bft) NE 45 0 min 0 W/m 1,2 C 5,8 C 0,0 km/h (0 Bft)
27/02/2012 20:10 5,7 C 73 % 1025,5 hPa 0,0 mm 0,0 km/h (0 Bft) N-NE 22 0 min 0 W/m 1,2 C 5,7 C 3,6 km/h (1 Bft)
27/02/2012 20:20 5,6 C 74 % 1025,4 hPa 0,0 mm 0,4 km/h (0 Bft) NE 45 0 min 0 W/m 1,3 C 5,6 C 3,2 km/h (1 Bft)
27/02/2012 20:30 5,5 C 74 % 1025,5 hPa 0,0 mm 0,0 km/h (0 Bft) N-NE 22 0 min 0 W/m 1,2 C 5,5 C 0,0 km/h (0 Bft)
27/02/2012 20:40 5,4 C 74 % 1025,5 hPa 0,0 mm 0,0 km/h (0 Bft) N-NE 22 0 min 0 W/m 1,1 C 5,4 C 0,0 km/h (0 Bft)
27/02/2012 20:50 4,9 C 74 % 1025,4 hPa 0,0 mm 0,0 km/h (0 Bft) E-NE 67 0 min 0 W/m 0,7 C 4,9 C 0,0 km/h (0 Bft)
27/02/2012 21:00 4,6 C 75 % 1025,3 hPa 0,0 mm 0,0 km/h (0 Bft) NE 45 0 min 0 W/m 0,6 C 4,6 C 2,9 km/h (1 Bft)
27/02/2012 21:10 4,5 C 76 % 1025,3 hPa 0,0 mm 0,0 km/h (0 Bft) NE 45 0 min 0 W/m 0,6 C 4,5 C 0,0 km/h (0 Bft)
27/02/2012 21:20 4,3 C 76 % 1025,4 hPa 0,0 mm 0,0 km/h (0 Bft) NE 45 0 min 0 W/m 0,5 C 4,3 C 0,0 km/h (0 Bft)
27/02/2012 21:30 4,0 C 77 % 1025,5 hPa 0,0 mm 0,0 km/h (0 Bft) NE 45 0 min 0 W/m 0,3 C 4,0 C 0,0 km/h (0 Bft)
27/02/2012 21:40 3,8 C 77 % 1025,4 hPa 0,0 mm 0,0 km/h (0 Bft) NE 45 0 min 0 W/m 0,1 C 3,8 C 0,0 km/h (0 Bft)
27/02/2012 21:50 3,6 C 77 % 1025,6 hPa 0,0 mm 0,0 km/h (0 Bft) NE 45 0 min 0 W/m -0,0 C 3,6 C 0,0 km/h (0 Bft)
27/02/2012 22:00 3,4 C 78 % 1025,6 hPa 0,0 mm 0,0 km/h (0 Bft) NE 45 0 min 0 W/m -0,1 C 3,4 C 0,0 km/h (0 Bft)
27/02/2012 22:10 3,2 C 79 % 1025,7 hPa 0,0 mm 0,0 km/h (0 Bft) NE 45 0 min 0 W/m -0,1 C 3,2 C 0,0 km/h (0 Bft)
27/02/2012 22:20 3,1 C 79 % 1025,6 hPa 0,0 mm 0,4 km/h (0 Bft) E 90 0 min 0 W/m -0,2 C 3,1 C 0,4 km/h (0 Bft)
27/02/2012 22:30 3,3 C 80 % 1025,6 hPa 0,0 mm 0,4 km/h (0 Bft) E-NE 67 0 min 0 W/m 0,2 C 3,3 C 4,0 km/h (1 Bft)
27/02/2012 22:40 3,4 C 80 % 1025,6 hPa 0,0 mm 0,0 km/h (0 Bft) E-NE 67 0 min 0 W/m 0,3 C 3,4 C 0,0 km/h (0 Bft)
27/02/2012 22:50 3,4 C 80 % 1025,6 hPa 0,0 mm 1,8 km/h (1 Bft) E 90 0 min 0 W/m 0,3 C 3,4 C 1,8 km/h (1 Bft)
27/02/2012 23:00 3,7 C 80 % 1025,5 hPa 0,0 mm 0,0 km/h (0 Bft) E 90 0 min 0 W/m 0,6 C 3,7 C 0,0 km/h (0 Bft)
27/02/2012 23:10 3,8 C 80 % 1025,4 hPa 0,0 mm 0,4 km/h (0 Bft) E 90 0 min 0 W/m 0,7 C 3,8 C 3,6 km/h (1 Bft)
27/02/2012 23:20 3,7 C 80 % 1025,4 hPa 0,0 mm 0,0 km/h (0 Bft) E 90 0 min 0 W/m 0,6 C 3,7 C 0,0 km/h (0 Bft)
27/02/2012 23:30 3,4 C 80 % 1025,4 hPa 0,0 mm 0,0 km/h (0 Bft) E 90 0 min 0 W/m 0,3 C 3,4 C 0,0 km/h (0 Bft)
27/02/2012 23:40 2,9 C 80 % 1025,4 hPa 0,0 mm 0,0 km/h (0 Bft) E 90 0 min 0 W/m -0,2 C 2,9 C 0,0 km/h (0 Bft)
27/02/2012 23:50 2,6 C 80 % 1025,4 hPa 0,0 mm 0,0 km/h (0 Bft) E 90 0 min 0 W/m -0,5 C 2,6 C 0,0 km/h (0 Bft)
_ Min-Heure 07:20 14:50 18:00 - 23:50 - - - - 06:40 07:20 23:50
Minimum _ -2,3 C 59 % 1024,6 hPa - 0,0 km/h (0 Bft) - - - - -3,8 C -2,3 C 0,0 km/h (0 Bft)
_ Max-Heure 14:40 10:50 10:20 23:50 13:20 - - 18:20 23:50 12:10 14:40 13:20
Maximum _ 11,5 C 92 % 1027,3 hPa 0,0 mm 11,2 km/h
N-NE (2 Bft)
- - 2 min 0 W/m 5,5 C 11,5 C 19,8 km/h
N-NE (3 Bft)
Moyenne _ 4,0 C 79 % 1026,0 hPa #0,0 mm 1,5 km/h (1 Bft) NE - #2:08 h 0 W/m 0,4 C 4,0 C 2,6 km/h (1 Bft)
Saint Bonnet de Bellac- Haute Vienne - France